Terminal Aerodrome Forecast
Issued by NWS

Home | Current Version | Previous Version | Text Only | Print | Product List | Glossary Off
Versions: 1 2 3 4 5 6 7 8 9 10 11 12 13 14 15

000
FTUS43 KBIS 260500
TAFMOT
TAF
KMOT 260525Z 2606/2706 24006KT P6SM SCT040 BKN120
     FM261000 24005KT P6SM VCFG SCT004 SCT120
     FM261500 22007KT P6SM SCT040
     FM270200 17004KT P6SM SKC=

USA.gov is the U.S. government's official web portal to all federal, state and local government web resources and services.